| time (UTC) | temp F | wind direction | speed MPH | gust MPH | rain 1hr in | rain 24hr in | rain mn in | humidity % | barometer mb |
| 20260901205048 | 86 | 172 | 4.0 | 10.0 | 0.00 | 0.00 | 0.00 | 40 | 1020.6 |
| 20260901204549 | 87 | 190 | 4.0 | 10.0 | 0.00 | 0.00 | 0.00 | 40 | 1020.6 |
| 20260901204048 | 86 | 157 | 3.0 | 7.0 | 0.00 | 0.00 | 0.00 | 41 | 1020.6 |
| 20260901203549 | 86 | 218 | 4.0 | 11.0 | 0.00 | 0.00 | 0.00 | 39 | 1020.6 |
| 20260901202548 | 86 | 180 | 4.0 | 8.0 | 0.00 | 0.00 | 0.00 | 40 | 1020.7 |
| 20260901202048 | 86 | 238 | 4.0 | 8.0 | 0.00 | 0.00 | 0.00 | 41 | 1020.7 |
| 20260901201049 | 86 | 189 | 3.0 | 7.0 | 0.00 | 0.00 | 0.00 | 42 | 1020.9 |
| 20260901200548 | 86 | 188 | 3.0 | 6.0 | 0.00 | 0.00 | 0.00 | 43 | 1020.9 |
| 20260901200049 | 86 | 179 | 3.0 | 6.0 | 0.00 | 0.00 | 0.00 | 43 | 1021.0 |
| 20260901195549 | 85 | 173 | 3.0 | 8.0 | 0.00 | 0.00 | 0.00 | 42 | 1021.1 |
| 20260901195045 | 85 | 190 | 3.0 | 9.0 | 0.00 | 0.00 | 0.00 | 43 | 1021.4 |
| 20260901194542 | 85 | 186 | 3.0 | 9.0 | 0.00 | 0.00 | 0.00 | 43 | 1021.4 |
| 20260901193542 | 84 | 215 | 2.0 | 7.0 | 0.00 | 0.00 | 0.00 | 45 | 1021.6 |
| 20260901192042 | 83 | 143 | 3.0 | 6.0 | 0.00 | 0.00 | 0.00 | 45 | 1021.8 |
| 20260901191543 | 83 | 165 | 3.0 | 6.0 | 0.00 | 0.00 | 0.00 | 46 | 1021.9 |
| 20260901191043 | 83 | 226 | 2.0 | 6.0 | 0.00 | 0.00 | 0.00 | 47 | 1021.9 |
| 20260901190542 | 83 | 86 | 1.0 | 3.0 | 0.00 | 0.00 | 0.00 | 47 | 1021.8 |
| 20260901190042 | 84 | 109 | 1.0 | 3.0 | 0.00 | 0.00 | 0.00 | 46 | 1022.1 |
| 20260901185542 | 84 | 57 | 1.0 | 3.0 | 0.00 | 0.00 | 0.00 | 45 | 1022.1 |
| 20260901185042 | 85 | 130 | 0.0 | 2.0 | 0.00 | 0.00 | 0.00 | 47 | 1022.2 |
| 20260901184540 | 85 | 15 | 1.0 | 4.0 | 0.00 | 0.00 | 0.00 | 48 | 1022.2 |
| 20260901184037 | 85 | 56 | 1.0 | 4.0 | 0.00 | 0.00 | 0.00 | 47 | 1022.2 |
| 20260901183034 | 84 | 119 | 1.0 | 3.0 | 0.00 | 0.00 | 0.00 | 48 | 1022.4 |
| 20260901182530 | 84 | 179 | 1.0 | 3.0 | 0.00 | 0.00 | 0.00 | 49 | 1022.4 |
| 20260901182028 | 83 | 143 | 1.0 | 3.0 | 0.00 | 0.00 | 0.00 | 49 | 1022.5 |
| 20260901181528 | 83 | 13 | 1.0 | 3.0 | 0.00 | 0.00 | 0.00 | 51 | 1022.5 |
| 20260901181027 | 82 | 152 | 1.0 | 3.0 | 0.00 | 0.00 | 0.00 | 51 | 1022.6 |
| 20260901180524 | 82 | 169 | 1.0 | 3.0 | 0.00 | 0.00 | 0.00 | 52 | 1022.6 |
| 20260901180023 | 81 | 178 | 1.0 | 2.0 | 0.00 | 0.00 | 0.00 | 52 | 1022.7 |
| 20260901174514 | 80 | 28 | 0.0 | 4.0 | 0.00 | 0.00 | 0.00 | 55 | 1022.7 |
| 20260901174017 | 80 | 119 | 0.0 | 2.0 | 0.00 | 0.00 | 0.00 | 53 | 1022.8 |
| 20260901173514 | 80 | 81 | 1.0 | 2.0 | 0.00 | 0.00 | 0.00 | 55 | 1022.8 |
| 20260901173012 | 80 | 138 | 1.0 | 2.0 | 0.00 | 0.00 | 0.00 | 55 | 1022.8 |
| 20260901172511 | 80 | 96 | 1.0 | 2.0 | 0.00 | 0.00 | 0.00 | 55 | 1022.8 |
| 20260901172010 | 79 | 129 | 1.0 | 2.0 | 0.00 | 0.00 | 0.00 | 56 | 1022.8 |
| 20260901171505 | 79 | 129 | 0.0 | 2.0 | 0.00 | 0.00 | 0.00 | 57 | 1022.8 |
| 20260901171004 | 78 | 81 | 0.0 | 2.0 | 0.00 | 0.00 | 0.00 | 57 | 1022.8 |
| 20260901170002 | 78 | 77 | 0.0 | 2.0 | 0.00 | 0.00 | 0.00 | 56 | 1022.7 |
| 20260901165000 | 78 | 163 | 1.0 | 2.0 | 0.00 | 0.00 | 0.00 | 58 | 1022.8 |
| 20260901164459 | 78 | 137 | 0.0 | 4.0 | 0.00 | 0.00 | 0.00 | 58 | 1022.7 |
| 20260901163958 | 77 | 44 | 0.0 | 4.0 | 0.00 | 0.00 | 0.00 | 58 | 1022.7 |
| 20260901163457 | 77 | 31 | 0.0 | 3.0 | 0.00 | 0.00 | 0.00 | 60 | 1022.7 |
| 20260901162455 | 76 | 66 | 0.0 | 2.0 | 0.00 | 0.00 | 0.00 | 59 | 1022.7 |
| 20260901161952 | 76 | 32 | 0.0 | 1.0 | 0.00 | 0.00 | 0.00 | 62 | 1022.7 |
| 20260901161453 | 76 | 51 | 0.0 | 2.0 | 0.00 | 0.00 | 0.00 | 62 | 1022.7 |
| 20260901160953 | 76 | 41 | 0.0 | 2.0 | 0.00 | 0.00 | 0.00 | 62 | 1022.7 |
| 20260901160453 | 75 | 310 | 0.0 | 1.0 | 0.00 | 0.00 | 0.00 | 64 | 1022.7 |
| 20260901155952 | 75 | 310 | 0.0 | 0.0 | 0.00 | 0.00 | 0.00 | 66 | 1022.5 |
| 20260901155451 | 74 | 310 | 0.0 | 0.0 | 0.00 | 0.00 | 0.00 | 66 | 1022.6 |
| 20260901154951 | 75 | 310 | 0.0 | 0.0 | 0.00 | 0.00 | 0.00 | 63 | 1022.5 |
| 20260901154448 | 75 | 310 | 0.0 | 0.0 | 0.00 | 0.00 | 0.00 | 65 | 1022.6 |
| 20260901153949 | 75 | 310 | 0.0 | 0.0 | 0.00 | 0.00 | 0.00 | 65 | 1022.5 |
| 20260901153447 | 74 | 310 | 0.0 | 0.0 | 0.00 | 0.00 | 0.00 | 67 | 1022.5 |
| 20260901152946 | 74 | 310 | 0.0 | 2.0 | 0.00 | 0.00 | 0.00 | 68 | 1022.5 |
| 20260901152444 | 73 | 310 | 0.0 | 2.0 | 0.00 | 0.00 | 0.00 | 68 | 1022.5 |
| 20260901151942 | 73 | 310 | 0.0 | 0.0 | 0.00 | 0.00 | 0.00 | 68 | 1022.5 |
| 20260901151444 | 73 | 310 | 0.0 | 0.0 | 0.00 | 0.00 | 0.00 | 68 | 1022.5 |
| 20260901150942 | 73 | 310 | 0.0 | 0.0 | 0.00 | 0.00 | 0.00 | 70 | 1022.5 |
| 20260901150442 | 72 | 310 | 0.0 | 0.0 | 0.00 | 0.00 | 0.00 | 70 | 1022.6 |
| 20260901145941 | 72 | 310 | 0.0 | 0.0 | 0.00 | 0.00 | 0.00 | 71 | 1022.6 |
| 20260901145441 | 71 | 310 | 0.0 | 0.0 | 0.00 | 0.00 | 0.00 | 71 | 1022.5 |
| 20260901144940 | 71 | 310 | 0.0 | 0.0 | 0.00 | 0.00 | 0.00 | 72 | 1022.6 |
| 20260901144441 | 70 | 310 | 0.0 | 0.0 | 0.00 | 0.00 | 0.00 | 73 | 1022.6 |
| 20260901143941 | 70 | 310 | 0.0 | 0.0 | 0.00 | 0.00 | 0.00 | 73 | 1022.6 |
| 20260901142940 | 69 | 310 | 0.0 | 0.0 | 0.00 | 0.00 | 0.00 | 75 | 1022.5 |
| 20260901142432 | 68 | 310 | 0.0 | 0.0 | 0.00 | 0.00 | 0.00 | 77 | 1022.5 |
| 20260901141931 | 67 | 310 | 0.0 | 0.0 | 0.00 | 0.00 | 0.00 | 79 | 1022.5 |
| 20260901141430 | 67 | 310 | 0.0 | 0.0 | 0.00 | 0.00 | 0.00 | 80 | 1022.6 |
| 20260901140929 | 66 | 310 | 0.0 | 0.0 | 0.00 | 0.00 | 0.00 | 82 | 1022.5 |
| 20260901140427 | 65 | 310 | 0.0 | 0.0 | 0.00 | 0.00 | 0.00 | 82 | 1022.5 |
| 20260901135926 | 65 | 310 | 0.0 | 0.0 | 0.00 | 0.00 | 0.00 | 82 | 1022.5 |
| 20260901135427 | 65 | 310 | 0.0 | 0.0 | 0.00 | 0.00 | 0.00 | 82 | 1022.5 |
| 20260901134926 | 64 | 310 | 0.0 | 0.0 | 0.00 | 0.00 | 0.00 | 83 | 1022.4 |
| 20260901134426 | 64 | 310 | 0.0 | 0.0 | 0.00 | 0.00 | 0.00 | 83 | 1022.4 |
| 20260901133927 | 63 | 310 | 0.0 | 0.0 | 0.00 | 0.00 | 0.00 | 85 | 1022.4 |
| 20260901133422 | 63 | 310 | 0.0 | 0.0 | 0.00 | 0.00 | 0.00 | 84 | 1022.4 |
| 20260901132923 | 62 | 310 | 0.0 | 0.0 | 0.00 | 0.00 | 0.00 | 84 | 1022.3 |
| 20260901132420 | 62 | 310 | 0.0 | 0.0 | 0.00 | 0.00 | 0.00 | 84 | 1022.2 |
| 20260901131920 | 62 | 310 | 0.0 | 0.0 | 0.00 | 0.00 | 0.00 | 83 | 1022.1 |
| 20260901130913 | 62 | 310 | 0.0 | 2.0 | 0.00 | 0.00 | 0.00 | 83 | 1021.9 |
| 20260901130412 | 62 | 310 | 0.0 | 2.0 | 0.00 | 0.00 | 0.00 | 83 | 1021.9 |
| 20260901125910 | 62 | 310 | 0.0 | 0.0 | 0.00 | 0.00 | 0.00 | 83 | 1022.1 |
| 20260901125411 | 62 | 310 | 0.0 | 0.0 | 0.00 | 0.00 | 0.00 | 83 | 1022.1 |
| 20260901124908 | 63 | 310 | 0.0 | 0.0 | 0.00 | 0.00 | 0.00 | 83 | 1022.1 |
| 20260901124406 | 62 | 310 | 0.0 | 0.0 | 0.00 | 0.00 | 0.00 | 83 | 1021.9 |
| 20260901123906 | 62 | 310 | 0.0 | 0.0 | 0.00 | 0.00 | 0.00 | 83 | 1021.9 |
| 20260901123404 | 62 | 310 | 0.0 | 0.0 | 0.00 | 0.00 | 0.00 | 83 | 1021.8 |
| 20260901122907 | 62 | 310 | 0.0 | 0.0 | 0.00 | 0.00 | 0.00 | 83 | 1021.7 |
| 20260901122405 | 62 | 310 | 0.0 | 0.0 | 0.00 | 0.00 | 0.00 | 83 | 1021.7 |
| 20260901121905 | 62 | 310 | 0.0 | 0.0 | 0.00 | 0.00 | 0.00 | 83 | 1021.7 |
| 20260901121405 | 62 | 310 | 0.0 | 0.0 | 0.00 | 0.00 | 0.00 | 83 | 1021.6 |
| 20260901120902 | 62 | 310 | 0.0 | 3.0 | 0.00 | 0.00 | 0.00 | 83 | 1021.6 |
| 20260901120400 | 62 | 310 | 1.0 | 3.0 | 0.00 | 0.00 | 0.00 | 83 | 1021.6 |
| 20260901115900 | 62 | 309 | 1.0 | 2.0 | 0.00 | 0.00 | 0.00 | 83 | 1021.6 |
| 20260901115358 | 62 | 309 | 0.0 | 2.0 | 0.00 | 0.00 | 0.00 | 83 | 1021.6 |
| 20260901114858 | 62 | 313 | 0.0 | 2.0 | 0.00 | 0.00 | 0.00 | 83 | 1021.6 |
| 20260901114356 | 62 | 306 | 0.0 | 2.0 | 0.00 | 0.00 | 0.00 | 83 | 1021.6 |
| 20260901113854 | 62 | 315 | 0.0 | 1.0 | 0.00 | 0.00 | 0.00 | 83 | 1021.5 |
| 20260901113357 | 62 | 335 | 0.0 | 0.0 | 0.00 | 0.00 | 0.00 | 82 | 1021.6 |
| 20260901112852 | 62 | 335 | 0.0 | 0.0 | 0.00 | 0.00 | 0.00 | 82 | 1021.6 |
| 20260901111849 | 63 | 335 | 0.0 | 1.0 | 0.00 | 0.00 | 0.00 | 82 | 1021.5 |
| 20260901111344 | 63 | 335 | 0.0 | 0.0 | 0.00 | 0.00 | 0.00 | 82 | 1021.5 |
| 20260901110842 | 63 | 335 | 0.0 | 1.0 | 0.00 | 0.00 | 0.00 | 82 | 1021.6 |
| 20260901110342 | 62 | 335 | 0.0 | 1.0 | 0.00 | 0.00 | 0.00 | 83 | 1021.5 |
| 20260901105840 | 62 | 335 | 0.0 | 0.0 | 0.00 | 0.00 | 0.00 | 83 | 1021.5 |
| 20260901104839 | 63 | 335 | 0.0 | 0.0 | 0.00 | 0.00 | 0.00 | 82 | 1021.5 |
| 20260901103838 | 63 | 335 | 0.0 | 0.0 | 0.00 | 0.00 | 0.00 | 81 | 1021.5 |
| 20260901103334 | 63 | 335 | 0.0 | 0.0 | 0.00 | 0.00 | 0.00 | 81 | 1021.5 |
| 20260901102832 | 63 | 335 | 0.0 | 0.0 | 0.00 | 0.00 | 0.00 | 81 | 1021.5 |
| 20260901101832 | 63 | 335 | 0.0 | 0.0 | 0.00 | 0.00 | 0.00 | 79 | 1021.6 |
| 20260901101333 | 64 | 335 | 0.0 | 1.0 | 0.00 | 0.00 | 0.00 | 79 | 1021.5 |
| 20260901100831 | 64 | 335 | 0.0 | 2.0 | 0.00 | 0.00 | 0.00 | 79 | 1021.5 |
| 20260901100330 | 64 | 16 | 0.0 | 2.0 | 0.00 | 0.00 | 0.00 | 78 | 1021.6 |
| 20260901095828 | 65 | 307 | 0.0 | 0.0 | 0.00 | 0.00 | 0.00 | 78 | 1021.5 |
| 20260901095328 | 65 | 307 | 0.0 | 0.0 | 0.00 | 0.00 | 0.00 | 78 | 1021.6 |
| 20260901094826 | 64 | 307 | 0.0 | 1.0 | 0.00 | 0.00 | 0.00 | 79 | 1021.6 |
| 20260901094327 | 64 | 307 | 0.0 | 1.0 | 0.00 | 0.00 | 0.00 | 79 | 1021.6 |
| 20260901090314 | 65 | 307 | 0.0 | 2.0 | 0.00 | 0.00 | 0.00 | 77 | 1021.6 |
| 20260901085814 | 65 | 318 | 0.0 | 1.0 | 0.00 | 0.00 | 0.00 | 77 | 1021.6 |
| 20260901085315 | 65 | 318 | 0.0 | 0.0 | 0.00 | 0.00 | 0.00 | 77 | 1021.6 |
| 20260901084812 | 65 | 318 | 0.0 | 0.0 | 0.00 | 0.00 | 0.00 | 77 | 1021.6 |
| 20260901084310 | 65 | 318 | 0.0 | 0.0 | 0.00 | 0.00 | 0.00 | 78 | 1021.6 |
| 20260901083810 | 65 | 318 | 0.0 | 0.0 | 0.00 | 0.00 | 0.00 | 78 | 1021.6 |
| 20260901083311 | 65 | 318 | 0.0 | 0.0 | 0.00 | 0.00 | 0.00 | 78 | 1021.5 |
| 20260901082806 | 65 | 318 | 0.0 | 0.0 | 0.00 | 0.00 | 0.00 | 77 | 1021.5 |
| 20260901082306 | 65 | 318 | 0.0 | 0.0 | 0.00 | 0.01 | 0.00 | 77 | 1021.6 |
| 20260901081804 | 65 | 318 | 0.0 | 0.0 | 0.00 | 0.02 | 0.00 | 76 | 1021.5 |
| 20260901080802 | 65 | 318 | 0.0 | 0.0 | 0.00 | 0.05 | 0.00 | 78 | 1021.5 |
| 20260901080302 | 65 | 318 | 0.0 | 0.0 | 0.00 | 0.07 | 0.00 | 78 | 1021.5 |
| 20260901075800 | 65 | 318 | 0.0 | 0.0 | 0.00 | 0.09 | 0.00 | 78 | 1021.6 |
| 20260901075300 | 65 | 318 | 0.0 | 1.0 | 0.00 | 0.11 | 0.00 | 78 | 1021.5 |
| 20260901074754 | 65 | 318 | 0.0 | 1.0 | 0.00 | 0.12 | 0.00 | 78 | 1021.5 |
| 20260901074252 | 65 | 318 | 0.0 | 0.0 | 0.00 | 0.13 | 0.00 | 77 | 1021.5 |
| 20260901073752 | 65 | 318 | 0.0 | 0.0 | 0.00 | 0.14 | 0.00 | 77 | 1021.6 |
| 20260901073250 | 66 | 318 | 0.0 | 0.0 | 0.00 | 0.14 | 0.00 | 76 | 1021.6 |
| 20260901072750 | 66 | 318 | 0.0 | 2.0 | 0.00 | 0.15 | 0.00 | 76 | 1021.6 |
| 20260901072251 | 66 | 318 | 0.0 | 2.0 | 0.00 | 0.16 | 0.00 | 75 | 1021.5 |
| 20260901071750 | 66 | 318 | 0.0 | 1.0 | 0.00 | 0.18 | 0.00 | 75 | 1021.5 |
| 20260901071250 | 66 | 318 | 0.0 | 1.0 | 0.00 | 0.18 | 0.00 | 75 | 1021.4 |
| 20260901070748 | 66 | 318 | 0.0 | 1.0 | 0.00 | 0.21 | 0.00 | 75 | 1021.4 |
| 20260901070248 | 66 | 318 | 0.0 | 1.0 | 0.00 | 0.25 | 0.00 | 76 | 1021.4 |
| 20260901065740 | 66 | 318 | 0.0 | 0.0 | 0.00 | 0.26 | 0.26 | 74 | 1021.3 |
| 20260901065239 | 66 | 318 | 0.0 | 0.0 | 0.00 | 0.26 | 0.26 | 74 | 1021.4 |
| 20260901063736 | 67 | 317 | 0.0 | 0.0 | 0.00 | 0.26 | 0.26 | 74 | 1021.4 |
| 20260901061733 | 67 | 317 | 0.0 | 0.0 | 0.00 | 0.26 | 0.26 | 75 | 1021.3 |
| 20260901061233 | 67 | 317 | 0.0 | 0.0 | 0.00 | 0.26 | 0.26 | 75 | 1021.3 |
| 20260901060731 | 67 | 317 | 0.0 | 0.0 | 0.00 | 0.26 | 0.26 | 73 | 1021.4 |
| 20260901060232 | 67 | 317 | 0.0 | 1.0 | 0.00 | 0.26 | 0.26 | 74 | 1021.3 |
| 20260901055728 | 67 | 317 | 0.0 | 1.0 | 0.00 | 0.26 | 0.26 | 74 | 1021.1 |
| 20260901055226 | 67 | 325 | 0.0 | 2.0 | 0.00 | 0.26 | 0.26 | 75 | 1021.3 |
| 20260901054725 | 67 | 325 | 1.0 | 2.0 | 0.00 | 0.26 | 0.26 | 74 | 1021.1 |
| 20260901053725 | 67 | 319 | 0.0 | 1.0 | 0.00 | 0.26 | 0.26 | 73 | 1021.0 |
| 20260901052222 | 68 | 310 | 0.0 | 0.0 | 0.00 | 0.26 | 0.26 | 73 | 1021.1 |
| 20260901051721 | 68 | 310 | 0.0 | 0.0 | 0.00 | 0.26 | 0.26 | 73 | 1021.1 |
| 20260901050719 | 68 | 310 | 0.0 | 1.0 | 0.00 | 0.26 | 0.26 | 73 | 1021.0 |
| 20260901050219 | 68 | 310 | 0.0 | 1.0 | 0.00 | 0.26 | 0.26 | 73 | 1021.0 |
| 20260901045717 | 68 | 310 | 0.0 | 0.0 | 0.00 | 0.26 | 0.26 | 73 | 1021.3 |
| 20260901045208 | 68 | 310 | 0.0 | 2.0 | 0.00 | 0.26 | 0.26 | 72 | 1021.3 |
| 20260901044707 | 68 | 310 | 0.0 | 2.0 | 0.00 | 0.26 | 0.26 | 72 | 1021.3 |
| 20260901043705 | 68 | 310 | 0.0 | 1.0 | 0.00 | 0.26 | 0.26 | 72 | 1021.3 |
| 20260901043203 | 69 | 310 | 0.0 | 1.0 | 0.00 | 0.26 | 0.26 | 72 | 1021.0 |
| 20260901042703 | 69 | 310 | 0.0 | 1.0 | 0.00 | 0.26 | 0.26 | 70 | 1021.1 |
| 20260901042203 | 69 | 310 | 0.0 | 2.0 | 0.00 | 0.26 | 0.26 | 70 | 1020.9 |
| 20260901041701 | 69 | 310 | 1.0 | 3.0 | 0.00 | 0.26 | 0.26 | 70 | 1020.9 |
| 20260901041200 | 70 | 331 | 2.0 | 3.0 | 0.00 | 0.26 | 0.26 | 70 | 1020.8 |
| 20260901040159 | 70 | 307 | 0.0 | 3.0 | 0.00 | 0.26 | 0.26 | 70 | 1020.7 |
| 20260901035659 | 71 | 298 | 0.0 | 0.0 | 0.00 | 0.26 | 0.26 | 70 | 1020.6 |
| 20260901035157 | 71 | 298 | 0.0 | 0.0 | 0.00 | 0.26 | 0.26 | 69 | 1020.5 |
| 20260901034655 | 71 | 298 | 0.0 | 0.0 | 0.00 | 0.26 | 0.26 | 69 | 1020.6 |
| 20260901034154 | 71 | 298 | 0.0 | 1.0 | 0.00 | 0.26 | 0.26 | 69 | 1020.6 |
| 20260901033153 | 71 | 298 | 1.0 | 3.0 | 0.00 | 0.26 | 0.26 | 70 | 1020.4 |
| 20260901032651 | 71 | 224 | 0.0 | 0.0 | 0.00 | 0.26 | 0.26 | 71 | 1020.2 |
| 20260901031647 | 71 | 224 | 0.0 | 0.0 | 0.00 | 0.26 | 0.26 | 72 | 1020.0 |
| 20260901031147 | 70 | 224 | 0.0 | 0.0 | 0.00 | 0.26 | 0.26 | 72 | 1020.1 |
| 20260901030650 | 70 | 224 | 0.0 | 0.0 | 0.00 | 0.26 | 0.26 | 72 | 1020.0 |
| 20260901030147 | 70 | 224 | 0.0 | 0.0 | 0.00 | 0.26 | 0.26 | 73 | 1019.9 |
| 20260901025144 | 70 | 224 | 0.0 | 0.0 | 0.00 | 0.26 | 0.26 | 74 | 1019.8 |
| 20260901024645 | 70 | 224 | 0.0 | 0.0 | 0.00 | 0.26 | 0.26 | 73 | 1019.9 |
| 20260901024145 | 70 | 224 | 0.0 | 1.0 | 0.00 | 0.26 | 0.26 | 74 | 1020.0 |
| 20260901023645 | 71 | 224 | 0.0 | 1.0 | 0.00 | 0.26 | 0.26 | 72 | 1020.0 |
| 20260901023144 | 71 | 224 | 1.0 | 2.0 | 0.00 | 0.26 | 0.26 | 72 | 1020.0 |
| 20260901022642 | 70 | 224 | 1.0 | 2.0 | 0.00 | 0.26 | 0.26 | 72 | 1020.0 |
| 20260901021138 | 71 | 224 | 0.0 | 0.0 | 0.00 | 0.26 | 0.26 | 72 | 1019.9 |
| 20260901020636 | 71 | 224 | 0.0 | 0.0 | 0.00 | 0.26 | 0.26 | 73 | 1020.0 |
| 20260901020137 | 71 | 224 | 0.0 | 0.0 | 0.00 | 0.26 | 0.26 | 73 | 1019.8 |
| 20260901015635 | 72 | 224 | 0.0 | 0.0 | 0.00 | 0.26 | 0.26 | 73 | 1019.8 |
| 20260901014633 | 72 | 224 | 0.0 | 0.0 | 0.00 | 0.26 | 0.26 | 72 | 1019.8 |
| 20260901014131 | 72 | 224 | 0.0 | 0.0 | 0.00 | 0.26 | 0.26 | 71 | 1019.7 |
| 20260901013631 | 73 | 224 | 0.0 | 0.0 | 0.00 | 0.26 | 0.26 | 71 | 1019.7 |
| 20260901013128 | 73 | 224 | 0.0 | 0.0 | 0.00 | 0.26 | 0.26 | 71 | 1019.6 |
| 20260901012626 | 73 | 224 | 0.0 | 0.0 | 0.00 | 0.26 | 0.26 | 71 | 1019.7 |
| 20260901012127 | 73 | 224 | 0.0 | 0.0 | 0.00 | 0.26 | 0.26 | 68 | 1019.8 |
| 20260901011127 | 74 | 224 | 0.0 | 0.0 | 0.00 | 0.26 | 0.26 | 68 | 1019.8 |
| 20260901010618 | 74 | 224 | 0.0 | 0.0 | 0.00 | 0.26 | 0.26 | 68 | 1019.7 |
| 20260901010117 | 74 | 224 | 0.0 | 0.0 | 0.00 | 0.26 | 0.26 | 67 | 1019.8 |
| 20260901005115 | 74 | 224 | 0.0 | 0.0 | 0.00 | 0.26 | 0.26 | 68 | 1019.9 |
| 20260901004613 | 74 | 224 | 0.0 | 1.0 | 0.00 | 0.26 | 0.26 | 66 | 1019.9 |
| 20260901004113 | 74 | 224 | 0.0 | 2.0 | 0.00 | 0.26 | 0.26 | 66 | 1019.9 |
| 20260901003613 | 74 | 224 | 0.0 | 2.0 | 0.00 | 0.26 | 0.26 | 65 | 1019.9 |
| 20260901003112 | 74 | 224 | 0.0 | 2.0 | 0.00 | 0.26 | 0.26 | 65 | 1020.0 |
| 20260901002611 | 74 | 224 | 1.0 | 2.0 | 0.00 | 0.26 | 0.26 | 64 | 1020.0 |
| 20260901002111 | 74 | 224 | 1.0 | 3.0 | 0.00 | 0.26 | 0.26 | 64 | 1019.9 |
| 20260901001609 | 75 | 188 | 1.0 | 3.0 | 0.00 | 0.26 | 0.26 | 64 | 1019.9 |
| 20260901000609 | 75 | 188 | 1.0 | 3.0 | 0.00 | 0.26 | 0.26 | 64 | 1020.0 |
| 20260901000107 | 75 | 188 | 1.0 | 3.0 | 0.00 | 0.26 | 0.26 | 62 | 1020.1 |
| 20260831235606 | 76 | 194 | 0.0 | 2.0 | 0.00 | 0.26 | 0.26 | 63 | 1020.2 |
| 20260831235105 | 76 | 194 | 0.0 | 2.0 | 0.00 | 0.26 | 0.26 | 62 | 1020.4 |
| 20260831234105 | 77 | 194 | 0.0 | 0.0 | 0.00 | 0.26 | 0.26 | 62 | 1020.6 |
| 20260831233603 | 77 | 194 | 0.0 | 1.0 | 0.00 | 0.26 | 0.26 | 62 | 1020.6 |
| 20260831233101 | 77 | 194 | 0.0 | 1.0 | 0.00 | 0.26 | 0.26 | 60 | 1020.6 |
| 20260831232059 | 78 | 194 | 0.0 | 3.0 | 0.00 | 0.26 | 0.26 | 56 | 1020.7 |
| 20260831231556 | 79 | 153 | 0.0 | 1.0 | 0.00 | 0.26 | 0.26 | 58 | 1020.6 |
| 20260831231057 | 79 | 165 | 0.0 | 0.0 | 0.00 | 0.26 | 0.26 | 59 | 1020.7 |
| 20260831230554 | 79 | 117 | 0.0 | 2.0 | 0.00 | 0.26 | 0.26 | 57 | 1020.7 |
| 20260831230055 | 79 | 117 | 0.0 | 3.0 | 0.00 | 0.26 | 0.26 | 56 | 1020.7 |
| 20260831225552 | 78 | 117 | 0.0 | 3.0 | 0.00 | 0.26 | 0.26 | 57 | 1021.0 |
| 20260831225053 | 78 | 117 | 0.0 | 2.0 | 0.00 | 0.26 | 0.26 | 57 | 1021.0 |
| 20260831224550 | 77 | 116 | 0.0 | 2.0 | 0.00 | 0.26 | 0.26 | 64 | 1021.0 |
| 20260831224053 | 77 | 31 | 0.0 | 2.0 | 0.00 | 0.26 | 0.26 | 61 | 1021.1 |
| 20260831223550 | 77 | 143 | 0.0 | 2.0 | 0.00 | 0.26 | 0.26 | 61 | 1021.1 |
| 20260831223051 | 76 | 65 | 0.0 | 2.0 | 0.00 | 0.26 | 0.26 | 61 | 1021.3 |
| 20260831222550 | 76 | 19 | 0.0 | 2.0 | 0.00 | 0.26 | 0.26 | 62 | 1021.3 |
| 20260831222051 | 76 | 42 | 0.0 | 2.0 | 0.00 | 0.26 | 0.26 | 60 | 1021.3 |
| 20260831221048 | 78 | 107 | 1.0 | 3.0 | 0.00 | 0.26 | 0.26 | 59 | 1021.4 |
| 20260831220542 | 78 | 151 | 1.0 | 3.0 | 0.00 | 0.26 | 0.26 | 59 | 1021.4 |
| 20260831220043 | 78 | 158 | 1.0 | 3.0 | 0.00 | 0.26 | 0.26 | 56 | 1021.5 |
| 20260831215545 | 79 | 155 | 1.0 | 3.0 | 0.00 | 0.26 | 0.26 | 57 | 1021.5 |
| 20260831215045 | 79 | 152 | 1.0 | 3.0 | 0.00 | 0.26 | 0.26 | 59 | 1021.6 |
| 20260831214543 | 78 | 117 | 0.0 | 3.0 | 0.00 | 0.26 | 0.26 | 60 | 1021.7 |
| 20260831214038 | 78 | 128 | 1.0 | 3.0 | 0.00 | 0.26 | 0.26 | 61 | 1021.7 |
| 20260831213538 | 78 | 136 | 1.0 | 3.0 | 0.00 | 0.26 | 0.26 | 60 | 1021.7 |
| 20260831213036 | 78 | 136 | 1.0 | 3.0 | 0.00 | 0.26 | 0.26 | 61 | 1021.7 |
| 20260831212535 | 78 | 152 | 1.0 | 3.0 | 0.00 | 0.26 | 0.26 | 62 | 1021.8 |
| 20260831211529 | 76 | 107 | 1.0 | 3.0 | 0.00 | 0.26 | 0.26 | 67 | 1021.8 |
| 20260831211028 | 76 | 149 | 1.0 | 3.0 | 0.00 | 0.26 | 0.26 | 68 | 1021.9 |
| 20260831210529 | 75 | 113 | 0.0 | 2.0 | 0.00 | 0.26 | 0.26 | 69 | 1021.9 |
| 20260831210029 | 75 | 96 | 0.0 | 1.0 | 0.00 | 0.26 | 0.26 | 68 | 1022.2 |